Location: Bonny Doon Airfield
(37.0704°N, 122.1252°W)
Time: 09:25:05
(UTC-08:00)

Vanguard 1 Rocket - Pass Details

Date: 27 October 2017
Orbit: 655 x 4222 km, 34.3° (Epoch: 16 November)

Event Time Altitude Azimuth Distance (km) Brightness Sun altitude
Rises 09:56:39 0° 275° (W) 4,342 10.4 25.1°
Reaches altitude 10° 10:00:14 10° 271° (W) 2,932 9.7 25.6°
Maximum altitude 10:06:25 51° 197° (SSW) 961 8.2 26.5°
Drops below altitude 10° 10:10:47 10° 120° (ESE) 2,081 10.8 27.2°
Sets 10:12:56 0° 115° (ESE) 2,960 11.1 27.5°
